G4GJR Weather Reports


time (UTC)temp
C
wind
direction
speed
KPH
gust
KPH
rain 1hr
cm
rain 24hr
cm
rain mn
cm
humidity
%
barometer
mb
20260510181504 11 47 3.2 14.5 0.00 0.00 0.00 52 1016.0
20260510180004 11 33 6.4 16.1 0.00 0.00 0.00 52 1015.9
20260510174504 11 57 4.8 19.3 0.00 0.00 0.00 51 1016.1
20260510173004 12 63 8.0 22.5 0.00 0.00 0.00 52 1016.1
20260510171504 12 71 4.8 16.1 0.00 0.00 0.00 52 1016.2
20260510170004 12 25 9.7 25.7 0.00 0.00 0.00 50 1016.4
20260510164504 12 57 8.0 22.5 0.00 0.00 0.00 52 1016.6
20260510161504 12 4 6.4 19.3 0.00 0.00 0.00 53 1016.8
20260510160004 13 58 8.0 19.3 0.00 0.00 0.00 51 1016.8
20260510154504 13 2 9.7 19.3 0.00 0.00 0.00 53 1016.8
20260510153004 13 25 4.8 16.1 0.00 0.00 0.00 54 1017.0
20260510151504 13 4 8.0 22.5 0.00 0.00 0.00 53 1017.1
20260510150003 13 12 8.0 24.1 0.00 0.00 0.00 52 1017.3
20260510144504 13 1 4.8 19.3 0.00 0.00 0.00 56 1017.3
20260510143004 13 24 8.0 20.9 0.00 0.00 0.00 55 1017.4
20260510141504 13 79 8.0 22.5 0.00 0.00 0.00 55 1017.5
20260510140005 13 24 8.0 20.9 0.00 0.00 0.00 56 1017.6
20260510134504 12 301 3.2 22.5 0.00 0.00 0.00 58 1017.5
20260510133004 12 64 6.4 14.5 0.00 0.00 0.00 57 1017.8
20260510131503 12 9 6.4 24.1 0.00 0.00 0.00 60 1017.8
20260510130004 13 353 8.0 22.5 0.00 0.00 0.00 59 1017.9
20260510124503 12 298 6.4 24.1 0.00 0.00 0.00 60 1018.1
20260510123003 12 26 8.0 19.3 0.00 0.00 0.00 62 1018.3
20260510121504 11 335 4.8 25.7 0.00 0.00 0.00 65 1018.5
20260510120004 11 359 8.0 24.1 0.00 0.00 0.00 66 1018.7
20260510114505 11 39 6.4 22.5 0.00 0.00 0.00 66 1018.8
20260510113004 11 59 6.4 29.0 0.00 0.00 0.00 67 1018.8
20260510111504 11 3 9.7 22.5 0.00 0.00 0.00 68 1019.0
20260510104504 11 12 9.7 22.5 0.00 0.00 0.00 71 1019.3
20260510103003 11 12 11.3 29.0 0.00 0.00 0.00 74 1019.3
20260510100004 11 4 8.0 24.1 0.00 0.00 0.00 76 1019.3
20260510094504 10 73 9.7 22.5 0.00 0.00 0.00 76 1019.4
20260510093004 10 28 8.0 20.9 0.00 0.00 0.00 78 1019.5
20260510091503 10 21 14.5 27.4 0.00 0.00 0.00 77 1019.5
20260510090003 10 25 6.4 24.1 0.00 0.00 0.00 77 1019.7
20260510081504 10 5 8.0 19.3 0.00 0.00 0.00 80 1019.7
20260510080005 9 27 8.0 22.5 0.00 0.00 0.00 81 1019.8
20260510074504 9 9 8.0 22.5 0.00 0.00 0.00 82 1019.9
20260510073004 8 356 4.8 19.3 0.00 0.00 0.00 83 1019.9
20260510070003 8 45 11.3 22.5 0.00 0.00 0.00 84 1019.7
20260510064503 9 334 6.4 19.3 0.00 0.00 0.00 84 1019.6
20260510063004 9 343 6.4 16.1 0.00 0.00 0.00 84 1019.4
20260510061504 9 31 8.0 16.1 0.00 0.00 0.00 85 1019.4
20260510060003 8 21 8.0 20.9 0.00 0.00 0.00 85 1019.4
20260510054504 8 22 8.0 20.9 0.00 0.00 0.00 85 1019.3
20260510051504 8 29 9.7 19.3 0.00 0.00 0.00 86 1019.4
20260510050004 8 355 6.4 22.5 0.00 0.00 0.00 87 1019.4
20260510044505 8 19 4.8 14.5 0.00 0.00 0.00 87 1019.5
20260510043004 8 23 6.4 16.1 0.00 0.00 0.00 88 1019.4
20260510040004 8 37 4.8 14.5 0.00 0.00 0.00 88 1019.4
20260510034504 8 2 6.4 14.5 0.00 0.00 0.00 88 1019.6
20260510033005 8 14 4.8 12.9 0.00 0.00 0.00 88 1019.7
20260510030004 8 14 6.4 16.1 0.00 0.00 0.00 87 1019.7
20260510024504 8 22 4.8 12.9 0.00 0.00 0.00 88 1019.8
20260510023004 8 29 4.8 19.3 0.00 0.00 0.00 88 1020.0
20260510021504 8 353 4.8 16.1 0.00 0.00 0.00 88 1020.1
20260510020004 8 28 6.4 19.3 0.00 0.00 0.00 88 1020.0
20260510014504 8 20 9.7 20.9 0.00 0.00 0.00 88 1019.8
20260510013005 8 44 4.8 14.5 0.00 0.00 0.00 87 1020.0
20260510011504 8 339 4.8 16.1 0.00 0.00 0.00 87 1019.9
20260510010004 8 21 4.8 20.9 0.00 0.00 0.00 87 1019.8
20260510004504 8 15 4.8 19.3 0.00 0.00 0.00 87 1019.7
20260510003005 8 343 4.8 19.3 0.00 0.00 0.00 87 1019.9
20260510001504 8 354 6.4 16.1 0.00 0.00 0.00 86 1020.1
20260510000004 8 352 4.8 16.1 0.00 0.00 0.00 85 1020.1
20260509234504 8 25 6.4 14.5 0.00 0.00 0.00 84 1020.0
20260509233004 8 358 4.8 11.3 0.00 0.00 0.00 81 1020.2
20260509230004 9 345 4.8 16.1 0.00 0.00 0.00 78 1020.3
20260509223004 10 14 3.2 11.3 0.00 0.00 0.00 75 1020.1
20260509221504 10 353 4.8 16.1 0.00 0.00 0.00 74 1020.0
20260509214504 11 11 3.2 12.9 0.00 0.00 0.00 65 1019.8
20260509213005 11 67 6.4 16.1 0.00 0.00 0.00 60 1019.7
20260509211504 11 326 4.8 16.1 0.00 0.00 0.00 61 1019.4
20260509210004 12 27 6.4 12.9 0.00 0.00 0.00 56 1019.1
20260509204504 13 18 4.8 12.9 0.00 0.00 0.00 51 1019.0
20260509203004 13 25 1.6 8.0 0.00 0.00 0.00 48 1018.9
20260509201504 13 28 3.2 9.7 0.00 0.00 0.00 46 1018.8
20260509200004 14 66 3.2 12.9 0.00 0.00 0.00 46 1018.6
20260509193004 15 62 3.2 16.1 0.00 0.00 0.00 47 1018.2
20260509191504 15 335 3.2 12.9 0.00 0.00 0.00 47 1018.1
20260509184503 16 29 6.4 20.9 0.00 0.00 0.00 46 1017.9